Weather Service Report


791 
ASUS44 KEWX 252211
RWRTX 
SOUTH TEXAS REGIONAL WEATHER ROUNDUP
NATIONAL WEATHER SERVICE AUSTIN/SAN ANTONIO TX
500 PM CDT THU AUG 25 2016

NOTE: "FAIR" INDICATED FEW OR NO CLOUDS BELOW 12,000 FEET WITH NO
SIGNIFICANT WEATHER AND/OR OBSTRUCTIONS TO VISIBILITY.

* - THESE STATIONS ARE NOT NWS OR FAA STATIONS...AND ARE NOT SUBJECT
    TO NWS AND FAA QUALITY CONTROL.
 
TXZ171-172-183>190-252300-
TEXAS HILL COUNTRY AND EDWARDS PLATEAU
  
CITY           SKY/WX    TMP DP  RH WIND       PRES   REMARKS
JUNCTION       SUNNY     93  56  28 S8        30.01F HX  91           
*LLANO         SUNNY     93  66  40 S7        30.03F HX  96           
BURNET         SUNNY     90  63  40 VRB5      30.04F HX  91           
*HORSESHOE BAY SUNNY     92  62  37 SE6       30.01F HX  92           
*KERRVILLE     SUNNY     92  67  44 S10G17    30.04F HX  95           
*FREDERICKSBRG SUNNY     88  58  35 S9        30.04F                  
*ROCKSPRINGS   SUNNY     90  61  37 SE12      30.08F                  
*BOERNE STAGE  CLOUDY    88  64  45 S3        30.03F                  
*CASTROVILLE   CLOUDY    92  66  41 S8        30.00F HX  94           
HONDO          SUNNY     91  68  46 VRB3      30.00F HX  95           
*UVALDE        SUNNY     91  65  42 E10G16    29.99F HX  92           
DEL RIO        MOSUNNY   91  64  40 SE12G21   29.95F HX  92           
LAUGHLIN AFB   MOSUNNY   92  68  44 SE16      29.96F HX  96           
CARRIZO SPRGS  MOSUNNY   95  63  34 E8G16     29.94F HX  96           
*EAGLE PASS    CLEAR     93  61  33 E10G16    29.95F HX  93           
$$

TXZ173-191>194-202-209-217>225-228-252300-
CENTRAL AND SOUTH CENTRAL TEXAS
  
CITY           SKY/WX    TMP DP  RH WIND       PRES   REMARKS
GEORGETOWN     PTSUNNY   91  66  43 S3        30.00F HX  94           
AUSTIN/BERGSTM CLOUDY    90  72  55 CALM      29.98F HX  97           
AUSTIN/MABRY   CLOUDY    89  72  56 CALM      30.00F HX  96           
*AUSTIN/EXEC   CLOUDY    90  70  51 CALM      29.99F HX  95           
*LAGO VISTA    CLOUDY    89  67  48 SE5       30.03F HX  92           
SAN MARCOS     CLOUDY    88  72  58 SE6       30.01F HX  94           
NEW BRAUNFELS  CLOUDY    88  72  58 SE6       29.98F HX  94           
RANDOLPH AFB   CLOUDY    89  73  59 E6        29.99F HX  97           
PT SAN ANTONIO CLOUDY    90  71  52 SE8       29.97F HX  96           
SAN ANTONIO    CLOUDY    88  70  55 E7        29.99F HX  93           
STINSON FIELD  PTSUNNY   93  72  50 E10       29.97F HX 101           
*PLEASANTON    PTSUNNY   94  69  43 SE8       29.97F HX  98           
*LA GRANGE     CLOUDY    93  76  57 CALM      29.96F HX 104           
*GIDDINGS      LGT RAIN  87  76  69 S6        30.02F HX  97           
*GONZALES      MOSUNNY   83  77  83 CALM      29.98F HX  92           
$$

TXZ163>164-176>182-195>201-210>213-226-227-235-252300-
SOUTHEAST TEXAS
  
CITY           SKY/WX    TMP DP  RH WIND       PRES   REMARKS
COLLEGE STN    MOSUNNY   91  71  51 SW5       29.97F HX  97           
*BRYAN         NOT AVBL                                               
*CALDWELL      MOSUNNY   91  70  49 CALM      30.01F HX  97           
*CROCKETT      MOSUNNY   91  90  94 N3        30.02S HX 133           
*BRENHAM       MOSUNNY   93  71  48 E3        29.98F HX 100           
HUNTSVILLE     CLOUDY    88  74  63 CALM      29.99F HX  96           
CONROE         CLOUDY    85  75  72 CALM      30.00S HX  93           
HOUSTON BUSH   CLOUDY    80  77  90 S6        29.99F                  
HOUSTON HOBBY  CLOUDY    79  72  79 S6        29.99R                  
*HOUSTON SW AP LGT RAIN  75  71  87 SE8       30.01F                  
PEARLAND       CLOUDY    78  72  81 SW5       30.01F                  
HOUSTON HOOKS  CLOUDY    85  72  65 CALM      29.99F HX  91           
ELLINGTON FLD  PTSUNNY   82  73  74 SW6       30.01F                  
SUGAR LAND     CLOUDY    80  71  74 SE13      30.00R                  
*HOUSTON EXEC  CLOUDY    84  73  70 SE12      30.01R HX  91           
*CLEVELAND MUN CLOUDY    89  76  67 CALM      29.99S HX 100           
*WHARTON       MOSUNNY   82  73  73 S8        30.01R                  
*COLUMBUS      FAIR      87  75  66 SE3       29.97F HX  97           
*EAGLE LAKE    PTCLDY    89  75  63 SE6       29.97F HX  99           
$$

TXZ214>216-236>238-252300-
THE UPPER TEXAS COAST
  
CITY           SKY/WX    TMP DP  RH WIND       PRES   REMARKS
*ORANGE        MOSUNNY   91  69  48 SE6       30.01R HX  95           
PORT ARTHUR    MOSUNNY   91  76  61 VRB7      29.99S HX 103           
GALVESTON      MOSUNNY   88  78  72 SE9       30.00F HX 101           
ANGLETON       CLOUDY    82  70  66 N15G25    30.01R                  
*BAY CITY      RAIN      76  73  88 W9        30.02R                  
PALACIOS       SUNNY     89  75  63 SE9       29.98S HX  99           
$$

TXZ229>234-239>247-252300-
TEXAS COASTAL BEND AND RIO GRANDE PLAINS
  
CITY           SKY/WX    TMP DP  RH WIND       PRES   REMARKS
VICTORIA       TSTM      85  74  69 E12       29.98F HX  92           
*BEEVILLE      PTSUNNY   92  78  65 E6        29.98S HX 107           
ROCKPORT       SUNNY     90  74  59 SE13      29.97F HX  99           
*PORT ARANSAS  SUNNY     89  76  66 E7        29.97F HX 100           
*PORT LAVACA   SUNNY     89  79  71 E10       29.97F HX 105           
*INGLESIDE     MOSUNNY   92  76  59 E9G16     29.96F HX 104           
CORPUS CHRISTI MOSUNNY   94  72  48 E14G21    29.95F HX 102           
CORPUS NAS     MOSUNNY   91  77  63 SE14      29.96F HX 104           
*ROBSTOWN      SUNNY     93  72  49 SE12G18   29.95F HX 101           
ALICE          MOSUNNY   95  69  42 SE14      29.94F HX 100           
KINGSVILLE NAS MOSUNNY   92  75  57 SE13G20   29.94F HX 103           
COTULLA        MOSUNNY   96  66  37 SE9       29.95F HX  99           
*FAITH RANCH     N/A    N/A N/A N/A MISG        N/A                   
LAREDO         SUNNY     96  63  33 E10       29.93F HX  97           
$$

TXZ248>255-252300-
DEEP SOUTH TEXAS
  
CITY           SKY/WX    TMP DP  RH WIND       PRES   REMARKS
BROWNSVILLE    MOSUNNY   93  75  55 E17       29.94F HX 104           
PORT ISABEL    SUNNY     91  76  61 E15       29.94F HX 103           
*SOUTH PADRE     N/A     86  77  74 E12       29.96S HX  97           
HARLINGEN      MOSUNNY   94  72  48 E12G22    29.92F HX 102           
*HEBBRONVILLE  SUNNY     96  62  32 E6G12     29.95F HX  96           
MCALLEN        CLOUDY   103  67  31 E14       29.90F HX 108           
*WESLACO       MOSUNNY  N/A N/A N/A E13G23    29.91F                  
FALFURRIAS     MOSUNNY   95  71  45 E13       29.93S HX 101           
EDINBURG       PTSUNNY   95  68  40 E17G23    29.91F HX 100           
*ZAPATA        SUNNY     98  54  22 SE8G16    29.91F HX  96           
$$

TXZ213>215-236>238-242>244-246-247-251-254-255-252300-
CMAN STATIONS
  
STATION/POSITION TIME  TEMP    WIND        PRES    WAVE
                       AIR SEA DIR/SP/G            HT/PER
                 (UTC) (F)     (DEG/KT/KT) (MB)    (FT/S)
SABINE PASS      2100   87 89  150/ 11/ 13 1017.5
SEA RIM ST PARK  2200   86     160/  7/  8 1016.4
NORTH JETTY/GLS  2100   87 88  120/  8/ 10   N/A
EAGLE POINT      2100   86 90  150/  9/ 10 1016.0
MORGANS POINT    2100   88 86  130/  6/  8 1015.8
MISSION/ARANSAS  2100   87                 1016.0
PORT ARANSAS     2200   85 89   90/ 12/ 13 1015.1
MALAQUITE BEACH  2100   85 88  110/ 10/ 12 1015.5
BAFFIN BAY       2100   86 91  110/ 11/ 14 1014.9
PORT ISABEL      2100   89 83  230/  2/  5 1014.5
$$

GMZ080-GMZ150>470-252300-
OFFSHORE BUOY REPORTS
  
STATION/POSITION TIME  TEMP    WIND        PRES    WAVE
                       AIR SEA DIR/SP/G            HT/PER
                 (UTC) (F)     (DEG/KT/KT) (MB)    (FT/S)
20 E GALVESTON   2150   85 87  120/ 10/ 10 1015.4    1/ 6
90 E PT ARANSAS  2150   85 86   70/  8/ 10 1015.0    2/ 4
35 NE PT MANSFLD 2150   85 87  100/  8/ 10 1014.2    1/ 4
200 E PT ISABEL  2150   86 87   60/ 10/ 14 1013.5    1/ 5
$$
  

Return to Home page


Western Regional Climate Center, wrcc@dri.edu